User: anonymous   Login
Location: Lawrence Hall of Science
(37.8785°N, 122.2415°W)
Time: 09:45:39
(UTC-07:00)
Language:

ARGOS - Orbit

View from above orbital plane
View from above orbital plane
View from above satellite
View from above satellite

Ground track
Ground track

The orbit data is extracted from the following two-line orbital elements,

1 25634U 99008A   17206.19433521 -.00000003 +00000-0 +18650-4 0  9998
2 25634 098.6164 267.9628 0011369 097.9555 262.2912 14.19314920953382
Epoch (UTC): 25 July 2017 04:39:50
Eccentricity: 0.0011369
inclination: 98.6164°
perigee height: 819 km
apogee height: 836 km
right ascension of ascending node: 267.9628°
argument of perigee: 97.9555°
revolutions per day: 14.19314920
mean anomaly at epoch: 262.2912°
orbit number at epoch: 95338

The dashed part of the orbit path shows where the satellite is in the earth's shadow,  

DLR